Regional Weather Roundup
Issued by NWS Newport/Morehead, NC

Current Version | Previous Version | Text Only | Print | Product List | Glossary On
Versions: 1 2 3 4 5 6 7 8 9 10 11 12 13 14 15 16 17 18 19 20 21 22 23 24 25 26 27 28 29 30 31 32 33 34 35 36 37 38 39 40 41 42 43 44 45 46 47 48 49 50
000 ASUS42 KMHX 292313 RWRMHX WEATHER ROUNDUP FOR EASTERN NORTH CAROLINA NATIONAL WEATHER SERVICE NEWPORT/MOREHEAD CITY NC 700 PM EDT SUN MAY 29 2016 NOTE: "FAIR" INDICATES FEW OR NO CLOUDS BELOW 12,000 FEET WITH NO SIGNIFICANT WEATHER AND/OR OBSTRUCTIONS TO VISIBILITY NCZ015>017-031-032-045>047-102-103-300000- NORTH COAST CITY SKY/WX TMP DP RH WIND PRES REMARKS EDENTON MOSUNNY N/A N/A N/A S9 30.04S ELIZABETH CITY MOSUNNY 79 72 79 SE10 30.04F KITTY HAWK MOCLDY 78 72 82 S5 30.04F MANTEO NOT AVBL $$ NCZ045>047-081-094-103-104-300000- CENTRAL COAST CITY SKY/WX TMP DP RH WIND PRES REMARKS FRISCO LGT RAIN 76 73 91 S16 30.05S $$ NCZ095-097-098-100-101-300000- SOUTHERN COAST CITY SKY/WX TMP DP RH WIND PRES REMARKS BEAUFORT MOSUNNY 78 73 84 SE9 30.03S CEDAR ISLAND NOT AVBL JACKSONVILLE CLOUDY 77 73 87 SE10 30.01R PINEY ISLAND NOT AVBL WILMINGTON MOSUNNY 78 70 76 SE8 29.99R $$ NCZ011>013-027>030-043-044-078>080-089-090>093-098-300000- COASTAL PLAIN CITY SKY/WX TMP DP RH WIND PRES REMARKS AHOSKIE MOSUNNY 79 73 81 SE5 30.02S CLINTON MOSUNNY 76 74 93 E3 30.00F ELIZABETHTOWN MOSUNNY 79 70 74 SE6 29.98R GOLDSBORO NOT AVBL GREENVILLE CLOUDY 82 72 69 S9 30.03R HAVELOCK CLOUDY 79 72 79 SE10 30.03S KENANSVILLE LGT RAIN 76 73 91 CALM 30.01S KINSTON MOSUNNY 82 70 65 SE10 30.02R NEW BERN CLOUDY 79 70 74 SE8 30.03S RICHLANDS LGT RAIN 78 73 84 SE10 30.01R ROCKY MOUNT MOSUNNY 80 73 79 CALM 30.00F WASHINGTON CLOUDY 81 71 73 SE8 30.01S WHITEVILLE MOSUNNY 78 70 74 E3 29.96R $$ AMZ130-135-150-152-154-156-158-170-250-252-270-ANZ085-086-088-633-658-670-300000- MARINE OBSERVATIONS STATION/POSITION TIME TEMP WIND PRES WAVE SWELL AIR SEA DIR/SP/G HT/PER HT/PER (UTC) (F) (DEG/KT/KT) (MB) (FT/S) (FT/S) CHESAPEAKE LIGHT 2300 72 170/ 15/ 16 1018.4 64 E VA BEACH 2250 70 65 150/ 8/ 10 1018.2 4/ 8 3/ 8 DUCK 2200 64 N/A 2 E DUCK 2211 66 N/A 3/ 7 OREGON INLET 2200 79 N/A 13E OREGON INLT 2300 71 N/A 5/ 8 3/ 8 HATTERAS CG 2200 77 N/A DIAMOND BUOY 2250 79 81 160/ 17/ 21 1017.0 5/ 7 2/17 CAPE LOOKOUT 2300 77 140/ 7/ 8 1016.4 BEAUFORT LAB 2200 76 N/A 30 SE NEW RVR IN 2225 75 N/A 7/ 7 27 SE WRIGHTSVLE 2208 79 76 150/ 14/ 21 1015.2 5 SE WRIGHTSVLE NOT AVBL 225 S CAPE HAT 2250 76 76 130/ 12/ 14 1018.1 4/ 8 3/ 8 41 SE CHARLESTON 2250 73 78 200/ 14/ 17 1012.9 6/ 8 3/ 8 $$

USA.gov is the U.S. government's official web portal to all federal, state and local government web resources and services.